Tracking 25701 objects as of 4-Jul-2022
HD Live streaming from Space Station
objects crossing your sky now

FENGYUN 1C DEB

Track FENGYUN 1C DEB now!
10-day predictions


NORAD ID: 36735
Int'l Code: 1999-025EBH
Perigee: 703.7 km
Apogee: 835.8 km
Inclination: 99.1 °
Period: 100.1 minutes
Semi major axis: 7140 km
RCS: 0.0108 m2 (small)
Launch date: May 10, 1999
Source: People's Republic of China (PRC)
Launch site: Taiyaun Space Center, China (TSC)

Note: This is SATELLITE DEBRIS
aabbcc
Your satellite tracking list
Your tracking list is empty




NASA's NSSDC Master Catalog

Two Line Element Set (TLE):
1 36735U 99025EBH 22184.68970851  .00001504  00000-0  48216-3 0  9994
2 36735  99.1429 164.7864 0092456 279.3197  79.7543 14.38761174763384
Source of the keplerian elements: AFSPC